Погода в Барранкилье

Колумбия     10°57′18″N   74°47′11″W
темп.,
°C
ветер,
м/с
пор.,
м/с
влажн.,
%
обл.,
%
осадки,
мм/ч
давл.,
гПа
погр.,
м
26 января, вт
вт2601:00+26св81274100 0.0 1008396
04:00+25всв7107797 0.0 1008366
07:00+25св697869 0.0 1010332
10:00+29св565862 0.0 1011524
13:00+30св785531 0.0 1009554
16:00+29св1012600 0.0 1006487
19:00+27св1016700 0.0 1008474
22:00+27св1016680 0.0 1009510
27 января, ср
ср2701:00+26всв711741 0.0 1008326
04:00+25всв697898 0.0 1008290
07:00+25св697798 0.0 1010310
10:00+29св345699 0.0 1012497
13:00+30св775695 0.0 1009559
16:00+30св685775 0.0 1007554
19:00+27св8127588 0.0 1008346
22:00+27св8137234 0.0 1010386
28 января, чт
чт2801:00+26всв7107756 0.0 1009316
04:00+25всв6107937 0.0 1010353
07:00+25всв6107869 0.0 1011402
10:00+29св6562100 0.0 1013605
13:00+29св8862100 0.0 1010583
16:00+28св9126995 0.0 1008534
19:00+26св10157685 0.0 1009511
22:00+26св11167458 0.0 1010521
29 января, пт
пт2901:00+26св10157355 0.0 1009619
04:00+25св9137798 0.0 1009586
07:00+25св8117594 0.0 1011537
10:00+28св8106372 0.0 1011678
13:00+29св9105866 0.0 1009640
16:00+28св9116570 0.0 1006573
19:00+26св12177135 0.0 1007514
22:00+27св1218610 0.0 1009649
30 января, сб
сб3001:00+26св1014610 0.0 1009538
04:00+25всв711645 0.0 1008437
07:00+25св7116847 0.0 1010412
10:00+28св78543 0.0 1011633
13:00+30св87542 0.0 1009697
16:00+29св1012610 0.0 1006545
19:00+27св1016690 0.0 1007464
22:00+27св10166619 0.0 1008501